Location: Lasqueti Island Observatory
(49.4855°N, 124.2726°W)
Time: 12:34:07
(UTC-08:00)

Daily predictions for brighter satellites

Satellite Brightness Start Highest point End
(mag) Time Altitude Azimuth Time Altitude Azimuth Time Altitude Azimuth
Cosmos 2173 Rocket 4.4 16:55:11 10° SSW 17:01:16 70° WNW 17:07:28 10° N
IDEFIX/ARIANE 42P 3.2 16:59:11 10° S 17:04:21 62° WSW 17:09:33 10° NNW
Cosmos 1782 4.3 17:03:22 10° SE 17:06:05 18° E 17:08:48 10° NE
Cosmos 1844 Rocket 2.9 17:02:33 10° SSW 17:08:12 79° WNW 17:13:51 10° NNE
Aureole 3 4.4 17:05:11 10° NNW 17:09:50 73° W 17:15:49 10° S
Cosmos 44 Rocket 3.6 17:06:11 10° NNW 17:10:50 44° NE 17:15:34 10° ESE
Cosmos 304 Rocket 3.9 17:06:57 10° NNW 17:11:48 84° WSW 17:16:36 10° SSE
Cosmos 1862 Rocket 3.6 17:09:20 10° S 17:13:43 64° E 17:18:11 10° NNE
CZ-2C R/B 3.0 17:09:25 10° S 17:14:27 66° WSW 17:19:38 10° NNW
Cosmos 292 Rocket 4.5 17:10:52 10° N 17:15:06 31° NE 17:19:19 10° ESE
SJ-7 4.4 17:12:33 10° SSE 17:16:38 60° ENE 17:20:40 10° N
Okean 1-7 4.2 17:16:41 10° SE 17:20:05 22° E 17:23:31 10° NE
SJ-12 4.2 17:17:32 10° S 17:21:40 75° WSW 17:25:51 10° NNW
Cosmos 2242 Rocket 3.7 17:17:43 10° S 17:22:16 83° W 17:26:49 10° N
Sich 1 Rocket 3.7 17:19:06 10° N 17:23:25 50° ENE 17:27:46 10° SSE
Cosmos 1763 Rocket 4.0 17:22:18 10° NNW 17:27:28 63° WSW 17:32:31 10° S
Cosmos 2233 Rocket 4.0 17:21:22 10° S 17:27:32 66° E 17:33:41 10° NNE
Cosmos 44 3.2 17:25:32 10° NW 17:30:08 63° NE 17:34:57 10° SE
CSL-04 Debris 4.2 17:26:04 10° SSE 17:31:29 86° ENE 17:36:56 10° NNW
Lacrosse 5 2.7 17:26:49 10° W 17:31:33 39° NNW 17:35:34 14° NE
Cosmos 1833 Rocket 2.6 17:28:24 10° NNW 17:34:02 71° ENE 17:39:40 10° SE
USA 161 2.9 17:35:42 10° NNW 17:37:24 25° WNW 17:39:12 10° SW
AQUARIUS 4.1 17:33:01 10° SSE 17:37:31 85° ENE 17:42:03 10° NNW
Cosmos 405 4.0 17:36:12 10° N 17:39:17 26° ENE 17:42:21 10° SE
USA 116 4.4 17:35:07 10° NNE 17:39:20 38° E 17:43:02 10° SSE
SL-27 R/B 2.7 17:37:16 10° NNW 17:40:35 67° WSW 17:43:55 10° SSE
Cosmos 1782 Rocket 3.6 17:37:13 10° N 17:41:29 54° ENE 17:45:46 10° SSE
Cosmos 1437 3.6 17:39:06 10° SSW 17:42:12 51° WNW 17:45:19 10° N
ATLAS 3B R/B 4.0 17:37:40 10° WNW 17:43:37 28° NNW 17:49:01 11° NE
BREEZE-M R/B 4.3 17:43:50 10° W 17:46:01 24° SSW 17:48:59 10° SSE
Meteor 1-28 Rocket 3.3 17:42:48 10° NNE 17:46:27 51° E 17:50:04 10° S
Cosmos 2263 Rocket 4.4 17:43:15 10° WNW 17:46:52 17° NW 17:50:29 10° N
CORIOLIS 4.2 17:42:07 10° SSE 17:47:35 90° WSW 17:53:04 10° NNW
Cosmos 1844 4.4 17:42:04 10° SW 17:47:45 55° NW 17:53:29 10° NNE
Cosmos 540 Rocket 3.4 17:42:38 10° NNW 17:47:52 82° ENE 17:53:01 10° SSE
Cosmos 2297 4.2 17:43:39 10° S 17:48:57 41° ESE 17:53:13 16° NE
COSMO-SKYMED 1 3.4 17:46:08 14° NE 17:49:09 30° E 17:52:57 10° SSE
COSMOS 2487 3.3 17:46:30 10° N 17:49:36 28° ENE 17:50:41 23° E
Cosmos 2278 Rocket 2.2 17:45:16 10° SSW 17:50:58 88° ESE 17:56:42 10° NNE
ALOS 2.8 17:47:05 10° SE 17:51:21 36° ENE 17:55:38 10° N
YAOGAN 1 2.5 17:48:00 10° SSE 17:52:17 69° ENE 17:56:37 10° N
SMAP 3.6 17:53:02 10° S 17:57:39 62° WSW 18:02:17 10° NNW
Cosmos 1606 2.6 17:54:40 10° S 17:58:24 62° E 18:02:03 11° NNE
Landsat 4 3.9 17:56:37 16° NNE 17:59:30 49° E 18:03:11 10° S
Cosmos 1441 Rocket 4.2 17:56:26 10° SSE 17:59:39 26° E 17:59:39 26° E
USA 234 4.4 18:01:47 19° E 18:04:17 24° SE 18:09:22 10° S
Ariane Rocket 4.0 18:00:54 10° S 18:05:50 50° W 18:10:48 10° NNW
Cosmos 1503 Rocket 4.0 18:00:41 10° S 18:05:50 58° ESE 18:09:46 17° NNE
CZ-4C R/B 2.8 18:01:13 10° NW 18:08:09 75° NE 18:16:00 10° SE
EO 1 Del DPAF 3.6 18:07:34 32° ENE 18:08:39 40° E 18:12:16 10° S
Meteor 1-11 Rocket 3.8 18:04:05 10° N 18:09:52 56° ENE 18:15:30 10° SSE
Cosmos 1484 Rocket 4.3 18:07:24 10° SSW 18:11:04 39° W 18:14:49 10° NNW
Cosmos 1891 Rocket 4.5 18:06:08 10° SSE 18:12:05 55° E 18:17:59 10° NNE
Cosmos 1703 Rocket 3.6 18:09:16 10° SSW 18:13:45 82° W 18:18:14 10° N
Cosmos 2151 Rocket 3.8 18:12:38 10° N 18:16:52 44° ENE 18:21:07 10° SSE
METEOR-M 4.1 18:12:22 10° SSE 18:17:43 86° WSW 18:23:06 10° NNW
Cosmos 2221 Rocket 3.4 18:13:57 10° S 18:18:19 74° E 18:22:32 11° NNE
ERS-2 2.2 18:15:13 10° S 18:18:53 77° WSW 18:22:35 10° NNW
Intercosmos 25 4.1 18:12:09 10° S 18:19:16 88° ESE 18:23:40 10° N
Nadezhda 4 Rocket 4.0 18:15:13 10° N 18:21:15 56° ENE 18:27:15 10° SSE
Cosmos 1536 4.4 18:19:11 10° N 18:20:45 21° NNE 18:20:45 21° NNE
CZ-4 R/B 2.8 18:20:13 10° SSW 18:23:50 38° W 18:27:28 10° NNW
Cosmos 1602 3.6 18:20:55 10° N 18:24:47 87° ENE 18:28:38 10° S
Meteor 2-20 4.3 18:19:18 10° N 18:25:26 74° ENE 18:31:29 10° SSE
Cosmos 1633 4.0 18:22:37 10° NNW 18:26:06 40° W 18:29:33 10° SSW
Cosmos 2082 Rocket 3.1 18:21:13 10° NW 18:26:43 52° WSW 18:32:11 10° S
Cosmos 1072 Rocket 4.5 18:21:51 10° S 18:28:07 88° ESE 18:34:31 10° N
Okean 2 Rocket 3.2 18:25:14 10° NNW 18:29:47 77° W 18:34:17 10° S
Cosmos 2034 Rocket 3.9 18:28:56 10° S 18:35:15 71° E 18:41:35 10° NNE
Cosmos 405 Rocket 2.4 18:31:38 10° S 18:35:24 79° E 18:35:43 70° NE
SL-23 DEB 4.4 18:32:00 10° WNW 18:35:58 79° SSW 18:38:32 34° ESE
SKYMED 2 3.4 18:34:43 23° NNE 18:37:22 87° E 18:41:43 10° SSW
Meteor 2-6 Rocket 4.2 18:34:48 10° SSW 18:40:17 83° W 18:45:59 10° N
COSMOS 2455 4.0 18:34:45 10° WSW 18:40:20 38° NW 18:44:40 16° NNE
Timation 2 Rocket 4.1 18:33:29 10° NNW 18:40:21 90° NE 18:46:55 10° SSE
Cosmos 1092 Rocket 4.0 18:34:24 10° N 18:40:27 55° ENE 18:46:30 10° SSE
Cosmos 1782 3.9 18:38:14 10° SSW 18:42:06 45° WNW 18:45:57 10° N
CZ-2C R/B 4.5 18:38:35 10° N 18:42:57 51° WNW 18:47:20 10° SW
BREEZE-M DEB (TANK) 3.8 18:42:03 10° SW 18:43:16 27° SSW 18:43:16 27° SSW
CENTAUR R/B 3.7 18:39:11 10° W 18:45:14 38° NNW 18:49:38 20° NNE
Cosmos 1354 Rocket 4.2 18:40:34 10° SSW 18:45:50 71° WNW 18:49:10 23° NNE
Cosmos 2285 Rocket 4.3 18:45:20 10° NNW 18:51:14 43° NE 18:51:14 43° NE
SPOT 3 Rocket 4.2 18:50:55 10° S 18:56:03 57° W 19:01:12 10° NNW
Okean 1-7 4.2 18:53:14 10° SW 18:57:26 42° WNW 19:01:39 10° N
USA 229 DEB 4.2 18:52:06 10° S 18:57:43 38° SE 18:57:43 38° SE
USA 229 4.2 18:52:13 10° S 18:57:46 38° SE 18:57:46 38° SE
Cosmos 1538 Rocket 3.9 18:55:37 10° NNW 19:00:58 80° ENE 19:01:49 63° SE
FengYun 1-2 T 4.1 18:56:18 13° SSE 19:01:22 81° ENE 19:06:59 10° NNW
Cosmos 1464 Rocket 4.5 18:55:59 10° SSW 19:02:01 60° WNW 19:08:10 10° N
FENGYUN 3A 4.2 18:57:46 10° S 19:03:06 60° WSW 19:08:29 10° NNW
Meteor 1-5 Rocket 4.0 19:00:41 10° NNW 19:06:04 84° W 19:11:21 10° S
Cosmos 2195 Rocket 4.3 19:06:55 10° N 19:13:13 68° ENE 19:13:18 68° E
Lacrosse 5 2.8 19:10:43 10° WNW 19:14:46 37° N 19:14:46 37° N
Meteor 1-27 Rocket 4.1 19:10:26 10° SSW 19:16:19 69° WNW 19:21:59 12° N
Cosmos 2026 Rocket 4.1 19:13:46 10° N 19:19:11 60° NNE 19:19:11 60° NNE
COSMO-SKYMED 1 4.1 19:23:21 22° NNW 19:25:19 33° WNW 19:29:13 10° SW
Cosmos 2369 Rocket 4.2 19:20:22 10° S 19:21:18 15° S 19:21:18 15° S
ALOS 4.0 19:24:42 10° SSW 19:28:50 31° W 19:32:59 10° NNW
Cosmos 2278 Rocket 4.2 19:31:24 10° W 19:35:50 23° NW 19:38:41 16° N
ATLAS 3B R/B 4.0 19:30:49 10° NW 19:36:16 26° N 19:36:16 26° N
Cosmos 968 Rocket 4.2 19:36:24 10° SW 19:40:49 52° W 19:40:49 52° W
USA 234 3.4 19:49:09 61° SSW 19:49:09 61° SSW 19:54:36 10° SW
CZ-4C R/B 4.3 19:50:10 10° NW 19:56:29 34° WSW 20:03:23 10° S
CENTAUR R/B 4.3 20:32:07 10° NW 20:36:49 26° NNW 20:36:49 26° NNW
